Regional Weather Roundup
Issued by NWS Sterling, VA

Home | Current Version | Previous Version | Graphics & Text | Print | Product List | Glossary On
Versions: 1 2 3 4 5 6 7 8 9 10 11 12 13 14 15 16 17 18 19 20 21 22 23 24 25 26 27 28 29 30 31 32 33 34 35 36 37 38 39 40 41 42 43 44 45 46 47 48 49 50
000
ASUS41 KLWX 232010
RWRLWX

REGIONAL WEATHER ROUNDUP
NATIONAL WEATHER SERVICE BALTIMORE MD/WASHINGTON DC
400 PM EDT WED JUL 23 2014

Note: "FAIR" indicates few or no clouds below 12,000 feet
with no significant weather and/or obstructions to visibility.
 TC=TEMPERATURE CELSIUS

 * =Non NWS site. Station does not report precipitation (e.g. rain,
    snow, etc.), thunder, or fog.

DCZ001-MDZ009-015-VAZ040>042-051-053>054-232100-
WASHINGTON METRO
  /KDAA//-FT BELVOIR

CITY           SKY/WX    TMP DP  RH WIND       PRES   REMARKS
WASHINGTON NAT PTSUNNY   93  69  45 S12       29.86F HX  98
DULLES         PTSUNNY   91  69  48 SW13      29.86F HX  96
ANDREWS AFB    MOSUNNY   90  73  58 SW13      29.87F HX  98
QUANTICO       PTSUNNY   88  76  67 S10       29.87F HX  99
COLLEGE PARK*  MOSUNNY   95  68  41 S7G17     29.85F HX  99
LEESBURG*      MOSUNNY   95  72  46 SW12      29.87F HX 103
MANASSAS*      SUNNY     91  73  55 S10       29.87F HX 100
GAITHERSBURG*  SUNNY     91  72  52 SW8       29.90F HX  98

$$

MDZ006>007-011-014-232100-
BALTIMORE METRO

CITY           SKY/WX    TMP DP  RH WIND       PRES   REMARKS
BWI AIRPORT    PTSUNNY   91  70  49 SW8       29.84F HX  96
MD SCIENCE CTR   N/A     95  69  42 MISG      29.84F HX 100
MARTIN STATE   MOSUNNY   88  79  74 SE16      29.87F HX 102
ANNAPOLIS      SUNNY     87  74  64 S13       29.85F HX  95
FORT MEADE*    MOSUNNY   88  70  55 S7        29.87F HX  92

$$

MDZ012-015-019>023-232100-
MARYLAND EASTERN SHORE

CITY           SKY/WX    TMP DP  RH WIND       PRES   REMARKS
OCEAN CITY     MOSUNNY   82  75  79 S10G17    29.91F
SALISBURY      NOT AVBL
BAY BRIDGE AP*   N/A     88  72  58 S10G17    29.86F HX  94
CAMBRIDGE*     SUNNY     91  73  55 S9        29.88F HX 100
EASTON*        MOSUNNY   91  73  55 SW12      29.91F HX 100

$$

MDZ017>025-232100-
SOUTHERN MARYLAND

CITY           SKY/WX    TMP DP  RH WIND       PRES   REMARKS
PATUXENT RIVER MOSUNNY   87  77  72 SE12      29.87F HX  99
ST INIGOES     SUNNY     88  74  63 S10       29.87F HX  96
LEONARDTOWN*   SUNNY     90  68  48 SW9       29.89F HX  93

$$

MDZ003>005-232100-
NORTH CENTRAL MARYLAND

CITY           SKY/WX    TMP DP  RH WIND       PRES   REMARKS
FREDERICK*     MOSUNNY   95  77  55 SW8G16    29.87F HX 109
HAGERSTOWN APT MOSUNNY   91  71  51 S12       29.85F HX  97
WESTMINSTER*   MOSUNNY   93  79  62 SW9G17    29.88F HX 110

$$

MDZ501>502-232100-
WESTERN MARYLAND

CITY           SKY/WX    TMP DP  RH WIND       PRES   REMARKS
OAKLAND*       PTSUNNY   72  66  83 NW8G17    30.06R
CUMBERLAND*    MOSUNNY   95  63  34 W8        29.92S HX  96

$$

VAZ025>031-232100-
SHENANDOAH VALLEY

CITY           SKY/WX    TMP DP  RH WIND       PRES   REMARKS
WINCHESTER*    MOSUNNY   91  68  46 SW10G17   29.88S HX  95
STAUNTON*      MOSUNNY   84  71  63 S9        29.95F

$$

WVZ021-048>050-054>055-232100-
EASTERN WEST VIRGINIA PANHANDLE

CITY           SKY/WX    TMP DP  RH WIND       PRES   REMARKS
MARTINSBURG    MOSUNNY   93  68  43 S9        29.86F HX  97
PETERSBURG*    MOSUNNY   93  54  27 NW14      29.90F HX  91

$$

VAZ036>039-050-232100-
CENTRAL FOOTHILLS

CITY           SKY/WX    TMP DP  RH WIND       PRES   REMARKS
CHARLOTTESVILL LGT RAIN  86  72  62 W12       29.90F HX  92
ORANGE*        PTSUNNY   90  64  43 S5        29.90F HX  91

$$

VAZ055>057-232100-
NORTH AND CENTRAL PIEDMONT

CITY           SKY/WX    TMP DP  RH WIND       PRES   REMARKS
FREDERICKSBRG* MOSUNNY   96  69  41 SW10      29.86F HX 101
STAFFORD*      MOSUNNY   92  68  45 SW7       29.91F HX  96

$$

NCZ024-NYZ072-PAZ021-071-VAZ022-071-232100-
OTHER REGIONAL OBSERVATIONS

CITY           SKY/WX    TMP DP  RH WIND       PRES   REMARKS
NEW YORK CITY  PTSUNNY   86  72  62 VRB6      29.85F HX  92
PHILADELPHIA   PTSUNNY   91  69  48 SW14      29.85F HX  96
PITTSBURGH     MOSUNNY   84  66  54 W17       29.96F
ROANOKE        PTSUNNY   91  65  41 SW9       29.97F HX  93
RICHMOND       MOSUNNY   95  70  44 S14G25    29.88F HX 101
RALEIGH        MOSUNNY   92  72  51 SW12      29.97F HX  99

$$

ANZ530>537-232100-
MARINE OBSERVATIONS

STATION/POSITION TIME  TEMP    WIND        PRES
                       AIR SEA DIR/SP/G
                 (UTC) (F)     (DEG/KT/KT) (MB)
THOMAS PT LIGHT  2000   82 80  170/ 19/ 20 1011.4F
BALT KEY BRIDGE  2000   87     130/ 17/ 19 1010.0F
COVE POINT       2000   81     180/ 16/ 18 1011.7F
LEWISETTA        2000   88 84  210/ 11/ 14 1011.5F
SOLOMONS ISLAND  2000      82                N/A
PINEY POINT      2000          220/  9/ 11   N/A

$$




USA.gov is the U.S. government's official web portal to all federal, state and local government web resources and services.